{"data":{"norad_id":45367,"intl_designator":"2020-019H","name":"STARLINK-1273","alt_names":[],"object_type":"PAYLOAD","status":"ACTIVE","operator":null,"country":"US","launch_date":"2020-03-18","launch_site_code":"AFETR","launch_vehicle":null,"mission":null,"orbit_class":"UNKNOWN","rcs_meters":null,"size_class":null,"mass_kg":null,"dimensions":null,"purposes":["comms"],"wikipedia_slug":null,"has_3d_model":false,"image_url":null,"decayed_at":null,"tle_current":{"epoch":"2026-09-20T01:20:56.405760Z","epoch_age_seconds":56423,"freshness":"FRESH","line1":"1 45367U 20019H   26263.05620840  .00037471  00000+0  32105-3 0  9996","line2":"2 45367  53.0381 290.9930 0002912  37.9946 322.1275 15.69067948360197","mean_motion":15.69067948,"eccentricity":0.0002912,"inclination_deg":53.0381,"raan_deg":290.993,"arg_perigee_deg":37.9946,"mean_anomaly_deg":322.1275,"bstar":0.00032105,"rev_number":36019,"period_min":91.774228250312,"perigee_km":359.60208283185,"apogee_km":363.52728509258,"semimajor_km":6739.7016839622,"source":"CELESTRAK","updated_at":"2026-09-20T09:00:38.230009Z"}}}